BAW321 KSAN-KLAX

Flight info

Callsign BAW321
Flight time N/A
Altitude 10000
Route CWARD2 SLI
Aircraft A321/M-SDE3FGHIRWY/LB1

Departure

Time 2026-04-25 23:40
Airport San Diego International Airport (KSAN)

Arrival

Time N/A
Airport Los Angeles International Airport (KLAX)
Time Latitude Longitude Altitude Speed Heading
2026-04-25 23:13 32.73288 -117.19556 25 ft 0 kts 282°
2026-04-25 23:30 32.73284 -117.19537 27 ft 2 kts 282°
2026-04-25 23:30 32.73282 -117.19518 28 ft 3 kts 303°
2026-04-25 23:30 32.73268 -117.19504 27 ft 3 kts
2026-04-25 23:30 32.73262 -117.19505 28 ft 0 kts
2026-04-25 23:34 32.73280 -117.19502 29 ft 10 kts
2026-04-25 23:34 32.73357 -117.19495 27 ft 9 kts
2026-04-25 23:35 32.73368 -117.19490 27 ft 0 kts 39°
2026-04-25 23:35 32.73369 -117.19454 27 ft 9 kts 94°
2026-04-25 23:35 32.73345 -117.19346 26 ft 18 kts 106°
2026-04-25 23:35 32.73307 -117.19192 24 ft 20 kts 105°
2026-04-25 23:36 32.73272 -117.19038 26 ft 19 kts 105°
2026-04-25 23:36 32.73235 -117.18876 27 ft 23 kts 105°
2026-04-25 23:36 32.73181 -117.18661 29 ft 26 kts 108°
2026-04-25 23:36 32.73171 -117.18623 28 ft 0 kts 106°
2026-04-25 23:37 32.73155 -117.18558 28 ft 16 kts 107°
2026-04-25 23:38 32.73121 -117.18424 28 ft 18 kts 107°
2026-04-25 23:38 32.73086 -117.18281 32 ft 19 kts 105°
2026-04-25 23:38 32.73057 -117.18158 24 ft 0 kts 106°
2026-04-25 23:38 32.73056 -117.18157 24 ft 0 kts 106°
2026-04-25 23:39 32.73056 -117.18154 23 ft 3 kts 103°
2026-04-25 23:39 32.73081 -117.18113 23 ft 9 kts 24°
2026-04-25 23:39 32.73163 -117.18180 28 ft 26 kts 294°
2026-04-25 23:39 32.73288 -117.18688 27 ft 108 kts 286°
2026-04-25 23:40 32.73558 -117.19796 235 ft 157 kts 287°
2026-04-25 23:40 32.73940 -117.21048 694 ft 172 kts 291°
2026-04-25 23:40 32.74497 -117.22360 1040 ft 180 kts 299°
2026-04-25 23:40 32.75215 -117.23594 1310 ft 183 kts 306°
2026-04-25 23:41 32.76083 -117.24723 1521 ft 188 kts 314°
2026-04-25 23:41 32.77053 -117.25783 1629 ft 189 kts 311°
2026-04-25 23:41 32.77989 -117.27008 1984 ft 210 kts 308°
2026-04-25 23:41 32.78960 -117.28366 2688 ft 226 kts 309°
2026-04-25 23:42 32.80033 -117.29867 3180 ft 247 kts 309°
2026-04-25 23:42 32.81019 -117.31238 4526 ft 189 kts 309°
2026-04-25 23:42 32.81791 -117.32323 5771 ft 162 kts 308°
2026-04-25 23:42 32.82609 -117.33506 5963 ft 212 kts 307°
2026-04-25 23:43 32.83616 -117.34989 5636 ft 268 kts 308°
2026-04-25 23:43 32.85036 -117.37081 4459 ft 358 kts 309°
2026-04-25 23:43 32.86592 -117.39466 4930 ft 369 kts 302°
2026-04-25 23:43 32.87946 -117.42016 6149 ft 358 kts 302°
2026-04-25 23:44 32.89265 -117.44308 8010 ft 300 kts 302°
2026-04-25 23:44 32.90357 -117.46159 9639 ft 262 kts 297°
2026-04-25 23:44 32.91294 -117.47994 9912 ft 260 kts 293°
2026-04-25 23:44 32.92181 -117.49858 9980 ft 258 kts 293°
2026-04-25 23:45 32.93104 -117.51694 9991 ft 258 kts 295°
2026-04-25 23:45 32.94085 -117.53489 9985 ft 259 kts 297°
2026-04-25 23:45 32.95114 -117.55250 9988 ft 260 kts 299°
2026-04-25 23:45 32.96181 -117.56995 9990 ft 261 kts 300°
2026-04-25 23:46 32.97268 -117.58728 9990 ft 261 kts 300°
2026-04-25 23:46 32.98363 -117.60449 9984 ft 261 kts 300°
2026-04-25 23:46 32.99465 -117.62171 9983 ft 261 kts 300°
2026-04-25 23:46 33.00566 -117.63887 9998 ft 261 kts 301°
2026-04-25 23:47 33.01669 -117.65607 9987 ft 261 kts 302°
2026-04-25 23:47 33.02771 -117.67330 9983 ft 261 kts 302°
2026-04-25 23:47 33.03875 -117.69053 9983 ft 262 kts 302°
2026-04-25 23:47 33.04978 -117.70777 9982 ft 262 kts 302°
2026-04-25 23:48 33.06068 -117.72480 9980 ft 262 kts 303°
2026-04-25 23:48 33.07414 -117.74024 9981 ft 267 kts 314°
2026-04-25 23:48 33.08816 -117.75443 9978 ft 267 kts 314°
2026-04-25 23:48 33.10233 -117.76875 9980 ft 267 kts 314°
2026-04-25 23:49 33.11653 -117.78311 9977 ft 267 kts 314°
2026-04-25 23:49 33.13164 -117.79618 9973 ft 274 kts 329°
2026-04-25 23:49 33.14972 -117.80405 9978 ft 278 kts 336°
2026-04-25 23:49 33.16858 -117.81153 9980 ft 292 kts 336°
2026-04-25 23:50 33.18808 -117.81920 9982 ft 296 kts 336°
2026-04-25 23:50 33.20769 -117.82686 9982 ft 297 kts 337°
2026-04-25 23:50 33.22729 -117.83454 9978 ft 297 kts 337°
2026-04-25 23:50 33.24690 -117.84225 9979 ft 296 kts 337°
2026-04-25 23:51 33.26651 -117.84996 9979 ft 296 kts 337°
2026-04-25 23:51 33.28614 -117.85768 9979 ft 296 kts 337°
2026-04-25 23:51 33.30572 -117.86540 9979 ft 296 kts 337°
2026-04-25 23:51 33.32526 -117.87312 9981 ft 296 kts 336°
2026-04-25 23:52 33.34487 -117.88084 9983 ft 297 kts 337°
2026-04-25 23:52 33.36453 -117.88857 9981 ft 297 kts 338°
2026-04-25 23:52 33.38408 -117.89625 9980 ft 296 kts 337°
2026-04-25 23:52 33.40336 -117.90390 9979 ft 295 kts 336°
2026-04-25 23:53 33.42289 -117.91165 9995 ft 296 kts 337°
2026-04-25 23:53 33.44247 -117.91941 9988 ft 297 kts 337°
2026-04-25 23:53 33.46213 -117.92717 9988 ft 297 kts 338°
2026-04-25 23:53 33.48175 -117.93491 9988 ft 297 kts 337°
2026-04-25 23:54 33.50138 -117.94265 9992 ft 297 kts 338°
2026-04-25 23:54 33.52103 -117.95043 9990 ft 297 kts 337°
2026-04-25 23:54 33.54066 -117.95821 9991 ft 297 kts 337°
2026-04-25 23:54 33.56031 -117.96598 9994 ft 297 kts 337°
2026-04-25 23:55 33.57973 -117.97366 9992 ft 289 kts 338°
2026-04-25 23:55 33.59848 -117.98104 9928 ft 280 kts 337°
2026-04-25 23:55 33.61678 -117.98828 9785 ft 273 kts 337°
2026-04-25 23:55 33.63465 -117.99537 9669 ft 266 kts 338°
2026-04-25 23:56 33.65189 -118.00222 9539 ft 257 kts 337°
2026-04-25 23:56 33.66856 -118.00884 9338 ft 250 kts 337°
2026-04-25 23:56 33.68497 -118.01537 9033 ft 247 kts 338°
2026-04-25 23:56 33.70118 -118.02184 8698 ft 245 kts 337°
2026-04-25 23:57 33.71730 -118.02830 8381 ft 243 kts 337°
2026-04-25 23:57 33.73324 -118.03470 8058 ft 241 kts 338°
2026-04-25 23:57 33.74889 -118.04094 7728 ft 239 kts 340°
2026-04-25 23:57 33.76530 -118.04457 7363 ft 240 kts 350°
2026-04-25 23:58 33.78185 -118.04665 7044 ft 238 kts 351°
2026-04-25 23:58 33.79823 -118.04848 6959 ft 237 kts 352°
2026-04-25 23:58 33.81466 -118.05027 6962 ft 238 kts 351°
2026-04-25 23:58 33.83120 -118.05208 6961 ft 239 kts 351°
2026-04-25 23:59 33.84775 -118.05385 6951 ft 238 kts 351°
2026-04-25 23:59 33.86419 -118.05575 6643 ft 238 kts 351°
2026-04-25 23:59 33.88066 -118.05780 6293 ft 237 kts 352°
2026-04-25 23:59 33.89698 -118.06002 5981 ft 234 kts 351°
2026-04-26 00:00 33.91277 -118.06211 5849 ft 223 kts 351°
2026-04-26 00:00 33.92776 -118.06407 5740 ft 212 kts 351°
2026-04-26 00:00 33.93734 -118.06534 5653 ft 207 kts 352°
2026-04-26 00:00 33.95078 -118.06959 5488 ft 196 kts 323°
2026-04-26 00:01 33.95959 -118.08143 5182 ft 192 kts 296°
2026-04-26 00:01 33.96565 -118.09609 4768 ft 197 kts 292°
2026-04-26 00:01 33.97117 -118.11126 4397 ft 198 kts 291°
2026-04-26 00:01 33.97847 -118.13136 3905 ft 196 kts 292°
2026-04-26 00:02 33.98215 -118.14145 3634 ft 195 kts 290°
2026-04-26 00:02 33.98716 -118.15647 3268 ft 190 kts 278°
2026-04-26 00:02 33.98517 -118.17139 2990 ft 177 kts 240°
2026-04-26 00:02 33.97830 -118.18329 2982 ft 174 kts 232°
2026-04-26 00:03 33.97086 -118.19475 2986 ft 172 kts 233°
2026-04-26 00:03 33.96663 -118.20807 2993 ft 173 kts 258°
2026-04-26 00:03 33.96486 -118.22251 2992 ft 174 kts 261°
2026-04-26 00:03 33.96343 -118.23684 2992 ft 171 kts 261°
2026-04-26 00:04 33.96214 -118.25100 2991 ft 169 kts 261°
2026-04-26 00:04 33.96083 -118.26515 2995 ft 169 kts 261°
2026-04-26 00:04 33.95945 -118.27938 2971 ft 173 kts 262°
2026-04-26 00:04 33.95832 -118.29377 2725 ft 174 kts 261°
2026-04-26 00:05 33.95482 -118.30741 2453 ft 168 kts 244°
2026-04-26 00:05 33.94936 -118.31981 2123 ft 168 kts 240°
2026-04-26 00:05 33.94364 -118.33199 1821 ft 165 kts 246°
2026-04-26 00:05 33.94145 -118.34058 1561 ft 160 kts 255°